Vero Beach, FL

9:50 PM EDT on July 25, 2017 (GMT -0400)
Vero Beach Municipal

Weather History for KVRB - June, 2013

Change the Weather History Date:

Friday, June 21, 2013

  Actual Average Record
Temperature  
Mean Temperature 79 °F 81 °F  
Max Temperature 87 °F 89 °F 98 °F (2009)
Min Temperature 71 °F 73 °F 66 °F (1965)
Degree Days  
Heating Degree Days 0 0  
Month to date heating degree days 0 0  
Since 1 June heating degree days 0 0  
Since 1 July heating degree days 398 456  
Cooling Degree Days 14 16  
Month to date cooling degree days 349 313  
Year to date cooling degree days 1256 1119  
Since 1 June cooling degree days 349 313  
Growing Degree Days 30 (Base 50)    
Moisture  
Dew Point 72 °F    
Average Humidity 81    
Maximum Humidity 94    
Minimum Humidity 68    
Precipitation  
Precipitation 0.05 in 0.23 in 1.76 in (2003)
Month to date precipitation 3.39 4.63  
Year to date precipitation 18.61 20.00  
Sea Level Pressure  
Sea Level Pressure 30.11 in    
Wind  
Wind Speed 2 mph (SW)    
Max Wind Speed 17 mph    
Max Gust Speed 22 mph    
Visibility 10 miles    
Events Rain , Thunderstorm    
T = Trace of Precipitation, MM = Missing Value Source: NWS Daily Summary

Daily Weather History Graph

Daily Weather History Graph

Search for Another Location

Airport or City:

Trip Planner

Search our weather history database for the weather conditions in past years. The results will help you decide how hot, cold, wet, or windy it might be!

Date:

Astronomy

Jun. 21, 2013 Rise Set
Actual Time 6:26 AM EDT 8:20 PM EDT
Civil Twilight 6:00 AM EDT 8:46 PM EDT
Nautical Twilight 5:27 AM EDT 9:19 PM EDT
Astronomical Twilight 4:53 AM EDT 9:53 PM EDT
Moon 6:34 PM EDT (6/21) 4:33 AM EDT (6/21)
Length of Visible Light 14h 46m
Length of Day
13h 53m
Waxing Gibbous, 95% of the Moon is Illuminated
Jun 21
Waxing Gibbous
Jun 23
Full
Jun 30
Last Quarter
Jul 8
New
Jul 15
First Quarter

Hourly Weather History & Observations

Time (EDT) Temp. Heat Index Dew Point Humidity Pressure Visibility Wind Dir Wind Speed Gust Speed Precip Events Conditions
12:53 AM 73.0 °F - 71.1 °F 93% 30.11 in 10.0 mi Calm Calm - N/A   Clear
1:53 AM 73.0 °F - 72.0 °F 96% 30.09 in 10.0 mi Calm Calm - N/A   Clear
2:53 AM 73.0 °F - 72.0 °F 96% 30.07 in 10.0 mi Calm Calm - N/A   Clear
3:53 AM 73.0 °F - 71.1 °F 93% 30.05 in 10.0 mi Calm Calm - N/A   Clear
4:53 AM 73.0 °F - 71.1 °F 93% 30.06 in 9.0 mi Calm Calm - N/A   Clear
5:53 AM 73.0 °F - 71.1 °F 93% 30.05 in 10.0 mi Calm Calm - N/A   Clear
6:53 AM 72.0 °F - 70.0 °F 93% 30.08 in 10.0 mi NW 3.5 mph - N/A   Mostly Cloudy
7:53 AM 75.9 °F - 73.9 °F 94% 30.09 in 10.0 mi Calm Calm - N/A   Clear
8:53 AM 81.0 °F 86.7 °F 75.0 °F 82% 30.11 in 10.0 mi Calm Calm - N/A   Clear
9:53 AM 84.0 °F 91.9 °F 75.0 °F 74% 30.12 in 10.0 mi South 8.1 mph - N/A   Mostly Cloudy
10:53 AM 87.1 °F 96.3 °F 75.0 °F 67% 30.13 in 10.0 mi SSE 5.8 mph - N/A   Scattered Clouds
11:53 AM 86.0 °F 95.1 °F 75.0 °F 70% 30.12 in 10.0 mi East 9.2 mph - N/A Thunderstorm Scattered Clouds
12:31 PM 78.8 °F - 66.2 °F 65% 30.14 in 10.0 mi WSW 10.4 mph 17.3 mph N/A Thunderstorm Thunderstorm
12:53 PM 77.0 °F - 66.0 °F 69% 30.15 in 10.0 mi WSW 12.7 mph 21.9 mph N/A Thunderstorm Thunderstorm
1:53 PM 75.0 °F - 68.0 °F 79% 30.14 in 10.0 mi WSW 3.5 mph - N/A Thunderstorm Thunderstorm
1:55 PM 75.2 °F - 68.0 °F 78% 30.14 in 10.0 mi West 3.5 mph - N/A   Mostly Cloudy
2:53 PM 75.9 °F - 70.0 °F 82% 30.12 in 5.0 mi Calm Calm - 0.03 in Rain Rain
3:53 PM 77.0 °F - 71.1 °F 82% 30.10 in 10.0 mi Calm Calm - 0.02 in   Mostly Cloudy
4:53 PM 77.0 °F - 73.0 °F 88% 30.10 in 10.0 mi SSE 3.5 mph - N/A   Clear
5:53 PM 79.0 °F - 73.9 °F 84% 30.10 in 10.0 mi NW 3.5 mph - 0.00 in   Mostly Cloudy
6:53 PM 80.1 °F 84.2 °F 73.0 °F 79% 30.11 in 10.0 mi Calm Calm - N/A   Clear
7:53 PM 79.0 °F - 73.9 °F 84% 30.09 in 10.0 mi ENE 3.5 mph - N/A   Clear
8:53 PM 77.0 °F - 73.0 °F 88% 30.11 in 10.0 mi Calm Calm - N/A   Clear
9:53 PM 75.9 °F - 73.0 °F 91% 30.12 in 10.0 mi Calm Calm - N/A   Clear
10:53 PM 73.9 °F - 72.0 °F 93% 30.13 in 10.0 mi Calm Calm - N/A   Clear
11:53 PM 73.9 °F - 72.0 °F 93% 30.13 in 10.0 mi Calm Calm - N/A   Clear